Regional Weather Roundup
Issued by NWS

Home | Current Version | Previous Version | Graphics & Text | Print | Product List | Glossary On
Versions: 1 2 3 4 5 6 7 8 9 10 11 12 13 14 15 16 17 18 19 20 21 22 23 24 25 26 27 28 29 30 31 32 33 34 35 36 37 38 39 40 41 42 43 44 45 46 47 48 49 50
000
ASUS45 KBOU 192107
RWRCO

WEATHER ROUNDUP FOR COLORADO
NATIONAL WEATHER SERVICE DENVER/BOULDER CO
300 PM MDT SAT AUG 19 2017

NOTE: "FAIR" INDICATES FEW OR NO CLOUDS BELOW 12000 FEET WITH NO
SIGNIFICANT WEATHER AND/OR OBSTRUCTIONS TO VISIBILITY.

COZ001>005-013-030-031-192200-
...NORTHWEST COLORADO...

CITY           SKY/WX    TMP DP  RH WIND       PRES   REMARKS
CRAIG          FAIR      89  18   7 W18       30.16F
HAYDEN         NOT AVBL
MEEKER         FAIR      84  24  11 VRB7G17   30.18F
RABBIT EARS PA FAIR      66  28  24 NW10G20   30.50F
STEAMBOAT SPGS FAIR      82  26  13 SW5G38    30.21F
WALDEN         FAIR      77  23  13 SW12G18   30.31F
$$

COZ006>008-011-192200-
...WEST CENTRAL VALLEYS...

CITY           SKY/WX    TMP DP  RH WIND       PRES   REMARKS
GRAND JUNCTION FAIR      90  33  13 S7        30.06F
MONTROSE       FAIR      88  34  14 NW10      30.15F
EAGLE          FAIR      85  35  16 SW23      30.21R
RIFLE          FAIR      89  36  15 N15G23    30.12F
DELTA          FAIR      94  32  11 W20G35    30.10F
NUCLA          FAIR      86  27  11 NE5       30.17F
$$

COZ017>023-064>068-192200-
...SOUTHWEST COLORADO...

CITY           SKY/WX    TMP DP  RH WIND       PRES   REMARKS
DURANGO        FAIR      87  29  12 NW21G29   30.21F
CORTEZ         FAIR      91  28  10 NW10G20   30.15F
PAGOSA SPRINGS FAIR      83  22  10 NW13G22   30.28F
TELLURIDE      PTSUNNY   68  29  23 S6G18     30.46R
WOLF CREEK PAS PTSUNNY   59  32  36 SW5       30.67F
$$

COZ009-010-012-014-032>034-037-058>063-192200-
...CENTRAL COLORADO...

CITY           SKY/WX    TMP DP  RH WIND       PRES   REMARKS
ASPEN          FAIR      75  33  21 CALM      30.32F
BUENA VISTA    FAIR      82  22  11 W13G22    30.26F
COPPER MTN     FAIR      61  27  27 W18G25    30.62F
BERTHOUD PASS  PTSUNNY   55  52  88 NW23G35   30.64S
COTTONWOOD PAS FAIR      79  14   8 N8        30.43F
GUNNISON       FAIR      74  44  34 NW6       30.29S
KREMMLING      FAIR      86  19   8 W10G18    30.24F
LEADVILLE      FAIR      63  27  25 W13G25    30.44R
MONARCH PASS   FAIR      61  23  23 W16G31    30.72F
SALIDA         FAIR      87  21   9 SW10G21   30.30F
SUNLIGHT       PTSUNNY   59  34  38 SW12G18   30.58F
WILKERSON PASS PTSUNNY   70  25  18 SW8       30.57F
$$

COZ069>075-192200-
...SAN LUIS VALLEY/SANGRE DE CRISTO MOUNTAINS...

CITY           SKY/WX    TMP DP  RH WIND       PRES   REMARKS
ALAMOSA        FAIR      82  31  15 CALM      30.26F
DEL NORTE      FAIR      79  33  18 E7        30.28F
LA VETA PASS   NOT AVBL
SAGUACHE       FAIR      79  34  19 S3        30.28F
$$

COZ035-036-038>040-192200-
...NORTHERN COLORADO FRONT RANGE...

CITY           SKY/WX    TMP DP  RH WIND       PRES   REMARKS
DENVER INTL AP FAIR      94  32  11 NW14      30.02F
DMNS CITY PARK   N/A     89  33  13 W5G12     30.01F
AURORA         MOSUNNY   91  36  14 NW3       30.05F
FRONT RANGE AP FAIR      91  32  12 W8        30.05F
ERIE MUNI ARPT FAIR      95  27   9 NW9G16    30.04F
BOULDER MUN AP FAIR      93  32  11 NW10      30.00F
CENTENNIAL     FAIR      89  29  11 VRB3      30.07F
BROOMFIELD     MOSUNNY   91  32  12 NW14      30.05F
FORT COLLINS   FAIR      93  43  17 NE10      30.00F HAZE
LONGMONT       FAIR      97  36  11 N10G17    30.00F
$$

COZ041-046-047-076>085-087-088-192200-
...PIKES PEAK/PALMER DIVIDE AND SOUTHERN FOOTHILLS...

CITY           SKY/WX    TMP DP  RH WIND       PRES   REMARKS
COLO. SPRINGS  FAIR      87  37  17 SE8       30.13F
A. F. ACADEMY  FAIR      86  34  16 S12       30.13F
SCHRIEVER AFB  FAIR      85  35  16 S8        30.13F
CHEYENNE MTN   PTSUNNY   80  39  23 S7        30.14F
ELLICOTT       NOT AVBL
FALCON         FAIR      85  31  14 W7G16     30.19F
FORT CARSON    FAIR      87  45  23 S10G18    30.09F
LIMON          FAIR      89  36  15 SW9G21    30.06F
MONUMENT HILL  FAIR      81  36  19 S8        30.20F
CANON CITY     MOSUNNY   91  45  19 E5        30.05F
WALSENBURG     FAIR      88  32  13 S6        30.13F
TRINIDAD       FAIR      86  41  20 S16       30.12F
$$

COZ042>045-048>051-090-091-192200-
...NORTHEAST COLORADO...

CITY           SKY/WX    TMP DP  RH WIND       PRES   REMARKS
GREELEY ARPT   FAIR      92  43  18 VRB6      29.98F
AKRON          FAIR      93  37  14 NW10      29.99F
BURLINGTON     FAIR      91  58  32 SW16      29.98F
WRAY           NOT AVBL
YUMA           FAIR      90  43  19 W5        29.94F
STERLING       FAIR      95  43  16 S9        29.92F
HOLYOKE        FAIR      95  63  34 S7        29.91F
FORT MORGAN    FAIR      96  32  10 CALM      29.98F
$$

COZ086-089-092>099-192200-
...SOUTHEAST COLORADO...

CITY           SKY/WX    TMP DP  RH WIND       PRES   REMARKS
PUEBLO         FAIR      94  36  13 S8        30.00F
LA JUNTA       FAIR      95  46  18 S6        29.98F
LAMAR          FAIR      96  57  27 SW10      29.93F
SPRINGFIELD      N/A     87  56  34 S15G25    30.03F
$$



USA.gov is the U.S. government's official web portal to all federal, state and local government web resources and services.